"startDT [UTC]","vpos","CH4 [ppm]","stdev(CH4) [ppm]","CO2 [ppm]","stdev(CO2) [ppm]","H2O_reported [%]","stdev(H2O_reported)","CavityPressure [torr]","CavityTemp [C]","OutletValve","CH4_dry [ppm]","CO2_dry [ppm]","DasTemp [C]","EtalonTemp [C]","WarmBoxTemp [C]","MPVPosition","T_ECpre [C]","T_EC1 [C]","T_EC2 [C]","p_inlet [hPa]","p_in [hPa]","p_out [hPa]","T_inlet [C]","RH_inlet [%]","dwpt_inlet [C]","T_vent [C]","RH_vent [%]","dwpt_vent [C]","flow_vent [l min-1]","flow_inlet [l min-1]","dwpt_sample [C]","T_room [C]"
2016-07-29 00:00:00,0.0,1.93318,0.00037,388.175,0.104,1.0248,0.0022,140.000,45.000,31761.04943,1.95338,393.124,35.874,45.070,45.000,0.00,0.09,-272.79,-272.85,-16,523,-941,24.3,25.8,3.5,24.0,27.0,3.8,5.73,1.73,1.2,28.5
2016-07-29 00:01:00,0.0,1.93317,0.00042,387.951,0.079,1.0332,0.0042,139.998,45.000,31760.60649,1.95346,392.933,35.859,45.070,45.000,0.00,0.09,-272.80,-272.86,-14,523,-941,24.3,26.1,3.6,24.0,27.1,3.9,5.73,1.89,1.3,28.5
2016-07-29 00:02:00,0.0,1.93337,0.00059,388.127,0.072,1.0427,0.0018,139.999,45.000,31758.41918,1.95385,393.157,35.868,45.071,45.000,0.00,0.09,-272.79,-272.85,-16,523,-941,24.3,26.3,3.8,24.0,27.4,4.0,5.73,1.68,1.3,28.5
2016-07-29 00:03:00,0.0,1.93387,0.00048,388.295,0.069,1.0331,0.0062,140.002,45.000,31757.84115,1.95421,393.284,35.875,45.070,45.000,0.00,0.09,-272.79,-272.85,-14,523,-941,24.3,26.0,3.6,24.0,27.3,4.0,5.73,1.93,1.3,28.5
2016-07-29 00:04:00,0.0,1.93371,0.00056,388.364,0.038,1.0201,0.0027,139.999,45.000,31757.82796,1.95378,393.288,35.875,45.070,45.000,0.00,0.09,-272.79,-272.86,-15,523,-941,24.3,25.7,3.4,24.0,26.9,3.8,5.73,1.66,1.2,28.5
2016-07-29 00:05:00,0.0,1.93390,0.00056,388.372,0.079,1.0148,0.0016,140.000,45.000,31760.92167,1.95386,393.270,35.876,45.070,45.000,0.00,0.09,-272.80,-272.86,-15,523,-941,24.3,25.6,3.3,24.0,26.7,3.7,5.73,1.96,1.2,28.5
2016-07-29 00:06:00,0.0,1.93353,0.00034,388.307,0.059,1.0235,0.0042,140.000,45.000,31760.28926,1.95366,393.247,35.876,45.070,45.000,0.00,0.09,-272.79,-272.85,-14,523,-941,24.3,25.8,3.5,24.0,26.9,3.7,5.73,1.64,1.3,28.5
2016-07-29 00:07:00,0.0,1.93337,0.00040,388.188,0.062,1.0304,0.0034,139.999,45.000,31759.19007,1.95362,393.159,35.876,45.070,45.000,0.00,0.09,-272.79,-272.85,-16,523,-941,24.3,26.0,3.6,24.0,27.1,3.9,5.73,1.97,1.2,28.5
2016-07-29 00:08:00,0.0,1.93316,0.00039,388.291,0.052,1.0328,0.0021,139.999,45.000,31757.34995,1.95346,393.280,35.888,45.070,45.000,0.00,0.09,-272.80,-272.86,-14,523,-941,24.3,26.1,3.6,23.9,27.2,3.9,5.73,1.63,1.2,28.4
2016-07-29 00:09:00,0.0,1.93324,0.00046,388.137,0.079,1.0347,0.0025,140.000,45.000,31760.40148,1.95359,393.132,35.914,45.070,45.000,0.00,0.09,-272.80,-272.85,-15,523,-941,24.3,26.1,3.6,24.0,27.2,3.9,5.73,1.97,1.2,28.4
2016-07-29 00:10:00,0.0,1.93358,0.00046,388.169,0.065,1.0344,0.0025,139.998,45.000,31758.02005,1.95394,393.160,35.915,45.070,45.000,0.00,0.09,-272.78,-272.85,-15,523,-941,24.3,26.2,3.7,24.0,27.3,4.0,5.73,1.63,1.2,28.5
2016-07-29 00:11:00,0.0,1.93339,0.00035,388.107,0.120,1.0400,0.0028,139.998,45.000,31758.65291,1.95385,393.128,35.914,45.070,45.000,0.00,0.09,-272.79,-272.86,-14,523,-941,24.3,26.3,3.7,24.0,27.4,4.0,5.73,1.96,1.2,28.5
2016-07-29 00:12:00,0.0,1.93355,0.00044,388.181,0.057,1.0373,0.0016,139.999,45.000,31757.76141,1.95396,393.188,35.922,45.070,45.000,0.00,0.09,-272.79,-272.86,-15,523,-941,24.3,26.2,3.7,23.9,27.4,4.0,5.73,1.65,1.2,28.5
2016-07-29 00:13:00,0.0,1.93378,0.00046,388.149,0.077,1.0340,0.0029,140.002,45.000,31759.66833,1.95411,393.140,35.915,45.070,45.000,0.00,0.09,-272.79,-272.84,-14,523,-941,24.3,26.1,3.6,23.9,27.3,3.9,5.73,1.94,1.2,28.5
2016-07-29 00:14:00,0.0,1.93441,0.00025,388.165,0.064,1.0329,0.0022,140.000,45.000,31758.21138,1.95473,393.154,35.910,45.070,45.000,0.00,0.09,-272.79,-272.86,-16,523,-941,24.3,26.1,3.6,23.9,27.3,3.9,5.73,1.68,1.2,28.5
2016-07-29 00:15:00,0.0,1.93386,0.00038,388.045,0.088,1.0333,0.0024,140.000,45.000,31760.31640,1.95421,393.033,35.921,45.070,45.000,0.00,0.09,-272.80,-272.86,-14,523,-941,24.3,26.2,3.6,24.0,27.3,3.9,5.73,1.90,1.2,28.4
2016-07-29 00:16:00,0.0,1.93372,0.00031,388.059,0.056,1.0362,0.0032,139.999,45.000,31762.42994,1.95411,393.056,35.934,45.070,45.000,0.00,0.09,-272.78,-272.86,-15,523,-941,24.3,26.3,3.7,24.0,27.4,4.0,5.73,1.72,1.2,28.4
2016-07-29 00:17:00,0.0,1.93363,0.00027,387.937,0.077,1.0433,0.0027,140.001,45.000,31761.74779,1.95414,392.972,35.960,45.070,45.000,0.00,0.09,-272.79,-272.85,-15,523,-941,24.3,26.4,3.8,23.9,27.5,4.0,5.73,1.86,1.2,28.4
2016-07-29 00:18:00,0.0,1.93360,0.00041,388.072,0.065,1.0440,0.0029,140.002,45.000,31762.30407,1.95418,393.113,35.998,45.070,45.000,0.00,0.09,-272.80,-272.86,-14,523,-941,24.3,26.4,3.8,23.9,27.6,4.1,5.73,1.77,1.2,28.5
2016-07-29 00:19:00,0.0,1.93366,0.00044,387.904,0.091,1.0463,0.0036,139.999,45.000,31760.31072,1.95424,392.952,36.000,45.070,44.999,0.00,0.09,-272.79,-272.84,-16,523,-941,24.3,26.5,3.8,23.9,27.6,4.1,5.73,1.81,1.2,28.4
2016-07-29 00:20:00,0.0,1.93361,0.00037,387.966,0.091,1.0503,0.0022,139.999,45.000,31761.82699,1.95426,393.033,35.994,45.070,44.999,0.00,0.09,-272.79,-272.85,-14,523,-941,24.3,26.6,3.9,23.9,27.8,4.2,5.73,1.81,1.2,28.4
2016-07-29 00:21:00,0.0,1.93377,0.00047,387.996,0.100,1.0522,0.0019,139.999,45.000,31761.75941,1.95449,393.078,35.985,45.070,45.000,0.00,0.09,-272.80,-272.86,-15,522,-941,24.3,26.7,3.9,23.9,27.8,4.2,5.73,1.76,1.2,28.4
2016-07-29 00:22:00,0.0,1.93401,0.00041,387.974,0.061,1.0482,0.0024,139.998,45.000,31761.36543,1.95464,393.034,35.999,45.070,45.000,0.00,0.09,-272.80,-272.86,-14,523,-941,24.3,26.6,3.8,23.9,27.8,4.2,5.73,1.86,1.2,28.4
2016-07-29 00:23:00,0.0,1.93407,0.00036,387.941,0.046,1.0446,0.0021,139.999,45.000,31761.44484,1.95462,392.981,35.986,45.070,45.000,0.00,0.09,-272.79,-272.84,-15,522,-941,24.2,26.5,3.8,23.9,27.7,4.1,5.73,1.72,1.2,28.4
2016-07-29 00:24:00,0.0,1.93458,0.00033,388.118,0.097,1.0430,0.0022,139.999,45.000,31760.02888,1.95509,393.155,35.971,45.070,45.000,0.00,0.09,-272.79,-272.86,-15,523,-941,24.2,26.4,3.7,23.9,27.6,4.1,5.73,1.90,1.2,28.4
2016-07-29 00:25:00,0.0,1.93413,0.00039,387.903,0.085,1.0481,0.0018,139.998,45.000,31763.10199,1.95478,392.962,35.937,45.070,45.000,0.00,0.09,-272.80,-272.85,-14,522,-941,24.3,26.6,3.9,23.9,27.7,4.2,5.73,1.69,1.2,28.4
2016-07-29 00:26:00,0.0,1.93382,0.00044,387.837,0.099,1.0528,0.0034,140.001,45.000,31763.60095,1.95458,392.916,35.900,45.070,45.000,0.00,0.09,-272.79,-272.85,-16,523,-941,24.2,26.7,3.9,23.9,27.8,4.2,5.73,1.92,1.2,28.4
2016-07-29 00:27:00,0.0,1.93409,0.00036,387.896,0.122,1.0561,0.0021,140.000,45.000,31762.22056,1.95485,392.992,35.886,45.071,45.001,0.00,0.09,-272.79,-272.85,-14,523,-941,24.3,26.8,4.0,23.9,28.0,4.3,5.73,1.66,1.2,28.4
2016-07-29 00:28:00,0.0,1.93405,0.00043,387.942,0.071,1.0542,0.0020,139.999,45.000,31760.72132,1.95481,393.032,35.878,45.071,45.001,0.00,0.09,-272.79,-272.86,-15,523,-941,24.2,26.8,3.9,23.9,28.0,4.3,5.73,1.95,1.2,28.4
2016-07-29 00:29:00,0.0,1.93454,0.00037,387.787,0.117,1.0516,0.0018,139.998,45.000,31760.53806,1.95526,392.865,35.894,45.071,45.001,0.00,0.09,-272.79,-272.85,-15,523,-941,24.2,26.7,3.9,23.9,27.9,4.2,5.73,1.64,1.2,28.4
2016-07-29 00:30:00,0.0,1.93444,0.00036,387.884,0.095,1.0521,0.0023,139.999,45.000,31760.76571,1.95516,392.959,35.909,45.071,45.001,0.00,0.09,-272.79,-272.85,-14,522,-941,24.2,26.7,3.9,23.9,27.9,4.2,5.73,1.97,1.2,28.4
2016-07-29 00:31:00,0.0,1.93376,0.00030,387.835,0.104,1.0540,0.0027,140.000,45.000,31762.44481,1.95453,392.922,35.899,45.071,45.000,0.00,0.09,-272.79,-272.85,-15,523,-941,24.3,26.8,3.9,23.9,27.9,4.3,5.73,1.63,1.2,28.4
2016-07-29 00:32:00,0.0,1.93397,0.00036,387.836,0.132,1.0493,0.0023,139.999,45.000,31762.56816,1.95462,392.898,35.897,45.070,45.000,0.00,0.09,-272.80,-272.86,-14,522,-941,24.2,26.7,3.9,23.9,27.9,4.2,5.73,1.97,1.2,28.4
2016-07-29 00:33:00,0.0,1.93389,0.00037,387.872,0.097,1.0512,0.0015,140.001,45.000,31763.22489,1.95454,392.947,35.919,45.070,45.000,0.00,0.09,-272.79,-272.85,-16,523,-941,24.2,26.7,3.9,23.9,27.9,4.2,5.73,1.63,1.2,28.4
2016-07-29 00:34:00,0.0,1.93405,0.00045,387.673,0.087,1.0550,0.0024,140.002,45.000,31764.20421,1.95483,392.761,35.930,45.070,45.000,0.00,0.09,-272.79,-272.85,-14,523,-941,24.2,26.8,4.0,23.9,28.0,4.3,5.73,1.97,1.2,28.4
2016-07-29 00:35:00,0.0,1.93354,0.00049,387.644,0.135,1.0579,0.0026,140.000,45.000,31764.80530,1.95440,392.748,35.928,45.070,45.000,0.00,0.09,-272.79,-272.86,-15,523,-941,24.2,27.0,4.0,23.9,28.1,4.3,5.73,1.63,1.2,28.4
2016-07-29 00:36:00,0.0,1.93363,0.00037,387.569,0.094,1.0634,0.0022,139.999,45.000,31762.48383,1.95454,392.701,35.901,45.070,45.000,0.00,0.09,-272.79,-272.85,-15,523,-941,24.2,27.1,4.1,23.9,28.2,4.4,5.73,1.96,1.2,28.4
2016-07-29 00:37:00,0.0,1.93368,0.00037,387.677,0.088,1.0647,0.0018,139.999,45.000,31761.54552,1.95464,392.814,35.933,45.070,45.000,0.00,0.09,-272.78,-272.85,-14,522,-941,24.2,27.1,4.1,23.9,28.3,4.4,5.73,1.65,1.2,28.4
2016-07-29 00:38:00,0.0,1.93385,0.00049,387.710,0.075,1.0585,0.0029,139.999,45.000,31760.81390,1.95471,392.817,35.939,45.070,45.000,0.00,0.09,-272.80,-272.85,-15,523,-941,24.2,26.9,4.0,23.9,28.2,4.4,5.73,1.94,1.2,28.4
2016-07-29 00:39:00,0.0,1.93456,0.00046,387.688,0.074,1.0507,0.0023,140.002,45.000,31760.70199,1.95523,392.758,35.947,45.070,45.000,0.00,0.09,-272.79,-272.86,-14,523,-941,24.2,26.7,3.9,23.9,28.0,4.2,5.73,1.68,1.2,28.4
2016-07-29 00:40:00,0.0,1.93450,0.00050,387.699,0.056,1.0524,0.0028,139.998,45.000,31758.70283,1.95521,392.774,35.940,45.070,45.000,0.00,0.09,-272.79,-272.85,-15,522,-941,24.3,26.8,4.0,23.9,28.0,4.2,5.73,1.90,1.2,28.4
2016-07-29 00:41:00,0.0,1.93436,0.00042,387.603,0.139,1.0598,0.0030,139.998,45.000,31758.36734,1.95524,392.713,35.965,45.070,45.000,0.00,0.09,-272.79,-272.86,-14,523,-941,24.2,27.0,4.0,23.9,28.1,4.3,5.73,1.71,1.2,28.4
2016-07-29 00:42:00,0.0,1.93453,0.00034,387.710,0.082,1.0608,0.0025,139.997,45.000,31757.06377,1.95542,392.833,35.953,45.070,45.000,0.00,0.09,-272.79,-272.86,-14,522,-941,24.2,27.0,4.0,23.9,28.2,4.4,5.73,1.87,1.2,28.4
2016-07-29 00:43:00,0.0,1.93462,0.00033,387.664,0.097,1.0569,0.0016,140.000,45.000,31758.77787,1.95545,392.765,35.966,45.070,45.000,0.00,0.09,-272.78,-272.86,-15,523,-941,24.2,26.9,4.0,23.9,28.1,4.3,5.73,1.74,1.2,28.4
2016-07-29 00:44:00,0.0,1.93458,0.00028,387.642,0.103,1.0577,0.0019,140.001,45.000,31759.26063,1.95540,392.739,35.943,45.070,45.000,0.00,0.09,-272.79,-272.85,-14,522,-941,24.2,27.0,4.0,23.9,28.1,4.3,5.73,1.84,1.2,28.4
2016-07-29 00:45:00,0.0,1.93492,0.00040,387.697,0.098,1.0546,0.0022,140.001,45.000,31760.46057,1.95568,392.785,35.935,45.070,45.000,0.00,0.09,-272.79,-272.86,-16,523,-941,24.2,26.9,3.9,23.8,28.1,4.3,5.73,1.78,1.2,28.4
2016-07-29 00:46:00,0.0,1.93502,0.00036,387.816,0.055,1.0553,0.0016,139.999,45.000,31759.41866,1.95583,392.906,35.925,45.070,45.000,0.00,0.09,-272.79,-272.85,-14,522,-941,24.2,26.9,3.9,23.8,28.1,4.3,5.73,1.79,1.2,28.4
2016-07-29 00:47:00,0.0,1.93494,0.00052,387.593,0.128,1.0538,0.0014,140.000,45.000,31760.12432,1.95570,392.678,35.921,45.070,45.000,0.00,0.09,-272.79,-272.85,-15,522,-941,24.2,26.9,3.9,23.8,28.0,4.2,5.73,1.84,1.2,28.4
2016-07-29 00:48:00,0.0,1.93498,0.00048,387.405,0.146,1.0577,0.0034,140.000,45.000,31760.65436,1.95578,392.510,35.926,45.070,45.000,0.00,0.09,-272.80,-272.85,-14,523,-941,24.2,27.0,4.0,23.9,28.1,4.3,5.73,1.73,1.2,28.4
2016-07-29 00:49:00,0.0,1.93476,0.00034,387.544,0.181,1.0675,0.0020,140.000,45.000,31760.83849,1.95580,392.687,35.927,45.070,45.000,0.00,0.09,-272.79,-272.85,-14,522,-941,24.2,27.3,4.1,23.9,28.4,4.4,5.73,1.89,1.2,28.4
2016-07-29 00:50:00,0.0,1.93484,0.00031,387.641,0.145,1.0647,0.0029,139.998,45.000,31759.85060,1.95582,392.776,35.933,45.070,45.000,0.00,0.09,-272.78,-272.84,-15,523,-941,24.2,27.2,4.1,23.8,28.4,4.4,5.73,1.69,1.2,28.4
2016-07-29 00:51:00,0.0,1.93476,0.00038,387.568,0.106,1.0594,0.0019,140.000,45.000,31760.36304,1.95565,392.682,35.893,45.070,45.000,0.00,0.09,-272.79,-272.85,-14,523,-941,24.2,27.1,4.0,23.9,28.2,4.4,5.73,1.93,1.2,28.3
2016-07-29 00:52:00,0.0,1.93458,0.00043,387.570,0.085,1.0611,0.0024,140.002,45.000,31760.52029,1.95548,392.685,35.875,45.070,45.000,0.00,0.09,-272.79,-272.85,-15,522,-941,24.2,27.1,4.1,23.8,28.2,4.3,5.73,1.65,1.2,28.4
2016-07-29 00:53:00,0.0,1.93465,0.00052,387.495,0.109,1.0639,0.0027,139.998,45.000,31758.68568,1.95561,392.632,35.863,45.070,45.000,0.00,0.09,-272.79,-272.85,-14,523,-941,24.2,27.2,4.1,23.8,28.3,4.4,5.73,1.96,1.2,28.4
2016-07-29 00:54:00,0.0,1.93472,0.00040,387.469,0.095,1.0665,0.0020,140.000,45.000,31757.86755,1.95572,392.609,35.872,45.070,45.000,0.00,0.09,-272.79,-272.85,-15,522,-941,24.2,27.2,4.1,23.8,28.4,4.4,5.73,1.63,1.2,28.3
2016-07-29 00:55:00,0.0,1.93472,0.00044,387.564,0.102,1.0639,0.0021,139.999,45.000,31758.10358,1.95568,392.698,35.875,45.070,45.000,0.00,0.09,-272.80,-272.86,-15,523,-941,24.2,27.2,4.1,23.9,28.4,4.4,5.73,1.98,1.2,28.4
2016-07-29 00:56:00,0.0,1.93453,0.00027,387.314,0.074,1.0679,0.0019,139.998,45.000,31760.08111,1.95559,392.468,35.875,45.070,45.000,0.00,0.09,-272.79,-272.85,-14,522,-941,24.2,27.3,4.2,23.8,28.4,4.4,5.73,1.63,1.2,28.4
2016-07-29 00:57:00,0.0,1.93422,0.00041,387.320,0.110,1.0731,0.0020,140.000,45.000,31760.65545,1.95539,392.489,35.873,45.070,45.000,0.00,0.09,-272.79,-272.85,-15,522,-941,24.2,27.5,4.2,23.8,28.6,4.5,5.73,1.97,1.2,28.4
2016-07-29 00:58:00,0.0,1.93452,0.00033,387.496,0.076,1.0719,0.0026,139.999,45.000,31759.30548,1.95560,392.668,35.875,45.070,45.000,0.00,0.09,-272.79,-272.86,-13,522,-941,24.2,27.5,4.2,23.8,28.6,4.5,5.73,1.63,1.2,28.4
2016-07-29 00:59:00,0.0,1.93474,0.00043,387.442,0.082,1.0685,0.0016,140.003,45.000,31757.42050,1.95581,392.597,35.878,45.070,45.000,0.00,0.09,-272.80,-272.85,-15,522,-940,24.1,27.4,4.2,23.8,28.5,4.5,5.73,1.97,1.2,28.4
2016-07-29 01:00:00,0.0,1.93461,0.00029,387.476,0.072,1.0681,0.0036,140.000,45.000,31756.68569,1.95565,392.628,35.884,45.070,45.000,0.00,0.09,-272.79,-272.85,-14,522,-941,24.2,27.4,4.2,23.8,28.5,4.5,5.73,1.65,1.2,28.4
2016-07-29 01:01:00,0.0,1.93455,0.00058,387.472,0.051,1.0623,0.0022,140.000,45.000,31756.16780,1.95545,392.596,35.879,45.070,45.000,0.00,0.09,-272.80,-272.85,-14,522,-940,24.1,27.2,4.1,23.8,28.4,4.4,5.73,1.95,1.2,28.4
2016-07-29 01:02:00,0.0,1.93469,0.00047,387.459,0.055,1.0601,0.0021,140.001,45.000,31756.78753,1.95561,392.573,35.875,45.070,45.000,0.00,0.09,-272.79,-272.86,-15,523,-940,24.2,27.1,4.1,23.8,28.3,4.3,5.73,1.66,1.2,28.4
2016-07-29 01:03:00,0.0,1.93504,0.00044,387.400,0.048,1.0618,0.0020,140.000,45.000,31754.67819,1.95596,392.519,35.875,45.070,45.000,0.00,0.09,-272.79,-272.84,-13,522,-940,24.2,27.2,4.1,23.8,28.3,4.3,5.73,1.92,1.2,28.4
2016-07-29 01:04:00,0.0,1.93470,0.00039,387.318,0.067,1.0685,0.0029,140.001,45.000,31756.05079,1.95575,392.472,35.876,45.070,45.000,0.00,0.09,-272.78,-272.85,-16,522,-940,24.2,27.4,4.2,23.8,28.5,4.4,5.73,1.69,1.2,28.4
2016-07-29 01:05:00,0.0,1.93484,0.00047,387.347,0.087,1.0736,0.0018,139.999,45.000,31754.17958,1.95599,392.521,35.875,45.070,45.000,0.00,0.09,-272.80,-272.85,-14,522,-940,24.2,27.5,4.3,23.8,28.6,4.5,5.73,1.89,1.2,28.3
2016-07-29 01:06:00,0.0,1.93488,0.00042,387.391,0.110,1.0704,0.0021,139.999,45.000,31756.67953,1.95598,392.558,35.874,45.070,45.000,0.00,0.09,-272.79,-272.86,-15,522,-940,24.2,27.5,4.2,23.8,28.6,4.5,5.73,1.73,1.2,28.3
2016-07-29 01:07:00,0.0,1.93481,0.00030,387.138,0.164,1.0761,0.0051,140.001,45.000,31755.27808,1.95601,392.325,35.875,45.070,45.000,0.00,0.09,-272.79,-272.85,-14,522,-941,24.2,27.7,4.3,23.8,28.7,4.5,5.73,1.85,1.1,28.4
2016-07-29 01:08:00,0.0,1.93471,0.00050,387.061,0.184,1.0842,0.0013,139.998,45.000,31754.02731,1.95611,392.292,35.875,45.070,45.000,0.00,0.09,-272.79,-272.86,-14,522,-940,24.2,27.9,4.4,23.8,28.9,4.6,5.73,1.77,1.1,28.3
2016-07-29 01:09:00,0.0,1.93484,0.00044,387.092,0.099,1.0856,0.0025,139.998,45.000,31754.35418,1.95621,392.324,35.875,45.070,45.000,0.00,0.09,-272.79,-272.85,-15,522,-940,24.1,28.0,4.5,23.8,29.0,4.7,5.73,1.81,1.1,28.3
2016-07-29 01:10:00,0.0,1.93499,0.00032,386.996,0.169,1.0876,0.0026,140.000,45.000,31754.27092,1.95646,392.236,35.875,45.070,45.000,0.00,0.09,-272.78,-272.85,-14,522,-941,24.1,28.0,4.5,23.8,29.1,4.7,5.73,1.80,1.2,28.3
2016-07-29 01:11:00,0.0,1.93506,0.00038,387.020,0.158,1.0899,0.0020,139.998,45.000,31750.76663,1.95657,392.280,35.882,45.070,45.000,0.00,0.09,-272.80,-272.85,-15,522,-940,24.1,28.1,4.5,23.8,29.1,4.7,5.73,1.78,1.2,28.3
2016-07-29 01:12:00,0.0,1.93473,0.00051,386.741,0.127,1.0956,0.0025,140.001,45.000,31749.48545,1.95630,392.018,35.897,45.070,45.000,0.00,0.09,-272.80,-272.86,-14,522,-940,24.1,28.3,4.6,23.8,29.2,4.8,5.73,1.84,1.1,28.3
2016-07-29 01:13:00,0.0,1.93456,0.00053,386.830,0.195,1.1011,0.0049,140.003,45.000,31750.95808,1.95627,392.140,35.922,45.070,45.000,0.00,0.09,-272.79,-272.85,-15,522,-940,24.1,28.4,4.7,23.8,29.4,4.9,5.73,1.75,1.2,28.3
2016-07-29 01:14:00,0.0,1.93483,0.00045,386.904,0.191,1.1032,0.0044,140.001,45.000,31751.02895,1.95662,392.224,35.933,45.070,45.000,0.00,0.09,-272.78,-272.85,-15,522,-940,24.1,28.5,4.7,23.8,29.6,4.9,5.73,1.86,1.1,28.3
2016-07-29 01:15:00,0.0,1.93491,0.00038,386.985,0.104,1.0960,0.0030,140.002,45.000,31751.76840,1.95653,392.272,35.911,45.070,45.000,0.00,0.09,-272.80,-272.85,-14,522,-940,24.1,28.3,4.6,23.8,29.4,4.9,5.73,1.73,1.1,28.3
2016-07-29 01:16:00,0.0,1.93510,0.00040,386.903,0.143,1.0927,0.0029,140.000,45.000,31751.44598,1.95664,392.168,35.878,45.070,45.000,0.00,0.09,-272.79,-272.85,-15,522,-940,24.1,28.2,4.6,23.8,29.3,4.8,5.73,1.88,1.2,28.3
2016-07-29 01:17:00,0.0,1.93504,0.00054,386.839,0.124,1.0996,0.0036,139.999,45.000,31751.35972,1.95677,392.145,35.886,45.070,45.000,0.00,0.09,-272.79,-272.84,-14,522,-940,24.1,28.4,4.7,23.8,29.4,4.9,5.73,1.71,1.1,28.3
2016-07-29 01:18:00,0.0,1.93452,0.00041,386.793,0.170,1.1057,0.0021,139.999,45.000,31750.67812,1.95630,392.124,35.882,45.070,45.000,0.00,0.09,-272.79,-272.85,-15,522,-940,24.1,28.6,4.8,23.8,29.6,5.0,5.73,1.90,1.1,28.3
2016-07-29 01:19:00,0.0,1.93486,0.00041,386.854,0.197,1.0993,0.0054,139.996,45.000,31749.91543,1.95654,392.149,35.889,45.070,45.000,0.00,0.09,-272.80,-272.86,-14,522,-940,24.1,28.4,4.6,23.8,29.5,4.9,5.73,1.69,1.1,28.3
2016-07-29 01:20:00,0.0,1.93540,0.00058,386.901,0.120,1.0883,0.0018,139.999,45.000,31749.17691,1.95687,392.150,35.908,45.070,45.000,0.00,0.09,-272.79,-272.85,-15,522,-940,24.1,28.1,4.5,23.8,29.2,4.8,5.73,1.92,1.2,28.3
2016-07-29 01:21:00,0.0,1.93565,0.00045,386.912,0.122,1.0986,0.0029,139.999,45.000,31749.87293,1.95731,392.207,35.907,45.070,45.000,0.00,0.09,-272.78,-272.85,-15,522,-940,24.1,28.4,4.6,23.8,29.4,4.9,5.73,1.67,1.1,28.3
2016-07-29 01:22:00,0.0,1.93578,0.00037,386.678,0.159,1.0911,0.0026,140.000,45.000,31750.82600,1.95731,391.936,35.918,45.070,45.000,0.00,0.09,-272.79,-272.86,-14,522,-940,24.1,28.2,4.5,23.8,29.3,4.8,5.73,1.93,1.1,28.3
2016-07-29 01:23:00,0.0,1.93566,0.00043,386.871,0.124,1.0947,0.0019,140.002,45.000,31751.20927,1.95726,392.153,35.907,45.070,45.000,0.00,0.09,-272.79,-272.85,-15,522,-940,24.1,28.3,4.6,23.8,29.3,4.8,5.73,1.66,1.1,28.3
2016-07-29 01:24:00,0.0,1.93551,0.00039,386.654,0.140,1.1006,0.0052,139.998,45.000,31752.00611,1.95724,391.963,35.888,45.070,45.000,0.00,0.09,-272.79,-272.85,-13,522,-940,24.1,28.5,4.7,23.8,29.5,4.9,5.73,1.95,1.1,28.3
2016-07-29 01:25:00,0.0,1.93599,0.00043,386.747,0.185,1.1025,0.0032,140.001,45.000,31752.46270,1.95773,392.050,35.882,45.070,45.000,0.00,0.09,-272.79,-272.86,-15,522,-940,24.1,28.5,4.7,23.8,29.6,5.0,5.73,1.65,1.1,28.3
2016-07-29 01:26:00,0.0,1.93620,0.00051,386.892,0.052,1.0883,0.0044,140.000,45.000,31750.99790,1.95770,392.141,35.880,45.070,45.000,0.00,0.09,-272.80,-272.85,-14,522,-940,24.1,28.1,4.5,23.8,29.3,4.8,5.73,1.95,1.1,28.3
2016-07-29 01:27:00,0.0,1.93626,0.00031,386.684,0.153,1.0878,0.0028,139.997,45.000,31752.04500,1.95770,391.923,35.916,45.070,45.000,0.00,0.09,-272.79,-272.84,-15,522,-940,24.1,28.1,4.5,23.8,29.2,4.7,5.73,1.64,1.1,28.3
2016-07-29 01:28:00,0.0,1.93603,0.00041,386.576,0.203,1.0942,0.0022,140.002,45.000,31753.94008,1.95764,391.855,35.937,45.070,45.000,0.00,0.09,-272.79,-272.85,-14,522,-940,24.1,28.3,4.6,23.8,29.3,4.8,5.73,1.96,1.1,28.3
2016-07-29 01:29:00,0.0,1.93583,0.00040,386.550,0.126,1.0991,0.0068,140.000,45.000,31752.36356,1.95752,391.838,35.938,45.070,45.000,0.00,0.09,-272.80,-272.86,-14,522,-940,24.1,28.5,4.7,23.8,29.4,4.9,5.73,1.64,1.1,28.3
2016-07-29 01:30:00,0.0,1.93602,0.00058,386.487,0.164,1.1030,0.0035,140.000,45.000,31751.88662,1.95774,391.802,35.937,45.070,45.000,0.00,0.09,-272.79,-272.84,-15,522,-940,24.1,28.5,4.7,23.7,29.6,4.9,5.73,1.97,1.1,28.3
2016-07-29 01:31:00,0.0,1.93618,0.00046,386.490,0.185,1.1020,0.0033,140.002,45.000,31752.36457,1.95800,391.805,35.938,45.070,45.000,0.00,0.09,-272.79,-272.84,-14,522,-940,24.1,28.5,4.7,23.7,29.6,4.9,5.73,1.62,1.1,28.3
2016-07-29 01:32:00,0.0,1.93575,0.00041,386.148,0.151,1.1089,0.0053,140.001,45.000,31753.64389,1.95766,391.488,35.935,45.070,45.000,0.00,0.09,-272.80,-272.86,-15,522,-940,24.1,28.8,4.8,23.7,29.7,5.0,5.73,1.97,1.1,28.3
2016-07-29 01:33:00,0.0,1.93570,0.00034,385.946,0.217,1.1232,0.0030,140.001,45.000,31751.64871,1.95784,391.352,35.938,45.070,45.000,0.00,0.09,-272.79,-272.86,-14,522,-940,24.1,29.1,5.0,23.7,30.1,5.1,5.73,1.63,1.1,28.3
2016-07-29 01:34:00,0.0,1.93596,0.00041,386.235,0.046,1.1214,0.0052,140.002,45.000,31751.27844,1.95812,391.635,35.936,45.070,45.000,0.00,0.09,-272.79,-272.85,-15,522,-940,24.1,29.0,4.9,23.7,30.2,5.2,5.73,1.97,1.1,28.3
2016-07-29 01:35:00,0.0,1.93643,0.00040,386.179,0.159,1.0998,0.0030,140.000,45.000,31753.07964,1.95812,391.479,35.938,45.070,45.000,0.00,0.09,-272.78,-272.85,-14,522,-940,24.1,28.5,4.7,23.7,29.7,5.0,5.73,1.63,1.1,28.3
2016-07-29 01:36:00,0.0,1.93607,0.00034,386.003,0.182,1.1142,0.0084,139.999,45.000,31754.78314,1.95810,391.362,35.949,45.070,45.000,0.00,0.09,-272.79,-272.86,-14,522,-940,24.1,28.9,4.9,23.7,29.8,5.0,5.73,1.97,1.1,28.3
2016-07-29 01:37:00,0.0,1.93608,0.00028,385.790,0.159,1.1229,0.0040,139.999,45.000,31754.10083,1.95824,391.198,35.951,45.070,45.000,0.00,0.09,-272.79,-272.85,-15,522,-940,24.1,29.1,5.0,23.7,30.2,5.2,5.73,1.63,1.1,28.3
2016-07-29 01:38:00,0.0,1.93668,0.00045,385.773,0.207,1.1239,0.0020,139.999,45.000,31752.44916,1.95891,391.177,35.940,45.070,45.000,0.00,0.09,-272.79,-272.85,-14,522,-940,24.1,29.2,5.0,23.7,30.2,5.2,5.73,1.97,1.1,28.3
2016-07-29 01:39:00,0.0,1.93673,0.00054,386.035,0.130,1.1097,0.0071,140.001,45.000,31753.80550,1.95862,391.375,35.939,45.070,45.000,0.00,0.09,-272.79,-272.86,-15,522,-940,24.1,28.7,4.8,23.7,30.0,5.1,5.73,1.64,1.1,28.3
2016-07-29 01:40:00,0.0,1.93708,0.00044,386.057,0.090,1.0965,0.0024,139.999,45.000,31755.53953,1.95875,391.336,35.926,45.070,45.000,0.00,0.09,-272.80,-272.85,-14,522,-941,24.1,28.3,4.6,23.8,29.5,4.9,5.73,1.96,1.1,28.3
2016-07-29 01:41:00,0.0,1.93690,0.00044,385.757,0.183,1.1051,0.0056,139.999,45.000,31753.83755,1.95872,391.068,35.913,45.070,45.000,0.00,0.09,-272.78,-272.85,-15,522,-940,24.1,28.7,4.8,23.7,29.6,4.9,5.73,1.65,1.1,28.3
2016-07-29 01:42:00,0.0,1.93683,0.00045,385.805,0.142,1.1163,0.0024,140.001,45.000,31753.74391,1.95887,391.174,35.883,45.070,45.000,0.00,0.09,-272.80,-272.85,-14,522,-940,24.1,28.9,4.9,23.7,30.0,5.1,5.73,1.94,1.1,28.3
2016-07-29 01:43:00,0.0,1.93711,0.00040,385.855,0.146,1.1161,0.0033,140.002,45.000,31752.49562,1.95916,391.225,35.878,45.071,45.001,0.00,0.09,-272.79,-272.85,-14,522,-940,24.1,28.9,4.9,23.7,30.0,5.1,5.73,1.68,1.1,28.3
2016-07-29 01:44:00,0.0,1.93693,0.00049,385.990,0.106,1.1111,0.0053,139.998,45.000,31752.89158,1.95889,391.344,35.884,45.071,45.000,0.00,0.09,-272.79,-272.84,-15,522,-940,24.1,28.8,4.8,23.7,29.9,5.1,5.73,1.92,1.1,28.3
2016-07-29 01:45:00,0.0,1.93714,0.00033,385.744,0.174,1.1138,0.0064,140.000,45.000,31752.56755,1.95913,391.100,35.934,45.070,45.000,0.00,0.09,-272.79,-272.85,-13,522,-940,24.1,28.9,4.9,23.7,29.9,5.0,5.73,1.70,1.1,28.3
2016-07-29 01:46:00,0.0,1.93727,0.00044,385.875,0.131,1.1218,0.0021,140.000,45.000,31752.11853,1.95942,391.268,35.925,45.070,45.000,0.00,0.09,-272.80,-272.86,-15,522,-940,24.1,29.1,5.0,23.7,30.1,5.2,5.73,1.90,1.1,28.3